EW4847 Weather Reports


time (UTC)temp
F
wind
direction
speed
knots
gust
knots
rain 1hr
in
rain 24hr
in
rain mn
in
humidity
%
barometer
mb
20260504195959 0 0.0 0.0 0.00 0.00 0.00
20260504195300 0 0.0 0.0 0.00 0.00 0.00
20260504195144 0 0.0 0.0 0.00 0.00 0.00
20260504194508 80 284 4.3 13.0 0.00 0.00 0.00 41 1007.0
20260504194149 0 0.0 0.0 0.00 0.00 0.00
20260504193611 0 0.0 0.0 0.00 0.00 0.00
20260504193122 0 0.0 0.0 0.00 0.00 0.00
20260504193043 79 184 5.2 13.9 0.00 0.00 0.00 41 1007.0
20260504192621 0 0.0 0.0 0.00 0.00 0.00
20260504192114 0 0.0 0.0 0.00 0.00 0.00
20260504191604 79 265 6.1 14.8 0.00 0.00 0.00 40 1007.3
20260504191143 0 0.0 0.0 0.00 0.00 0.00
20260504190638 0 0.0 0.0 0.00 0.00 0.00
20260504190132 0 0.0 0.0 0.00 0.00 0.00
20260504190037 79 197 5.2 13.0 0.00 0.00 0.00 41 1007.5
20260504185611 0 0.0 0.0 0.00 0.00 0.00
20260504185107 0 0.0 13.9 0.00 0.00 0.00
20260504184831 79 271 6.1 13.9 0.00 0.00 0.00 41 995.8
20260504184624 79 237 6.1 13.9 0.00 0.00 0.00 41 1007.8
20260504184122 79 273 6.1 13.9 0.00 0.00 0.00 41 995.9
20260504183605 0 0.0 0.0 0.00 0.00 0.00
20260504183110 80 127 3.5 12.2 0.00 0.00 0.00 42 1007.7
20260504183102 0 0.0 2.6 0.00 0.00 0.00
20260504182604 80 189 5.2 18.2 0.00 0.00 0.00 41 995.8
20260504182037 80 300 5.2 18.2 0.00 0.00 0.00 42 995.9
20260504181748 79 246 6.1 6.1 0.00 0.00 0.00 40 996.1
20260504181610 79 193 3.5 18.2 0.00 0.00 0.00 42 1007.9
20260504180939 0 0.0 0.0 0.00 0.00 0.00
20260504180447 0 0.0 16.5 0.00 0.00 0.00
20260504180228 79 232 6.1 16.5 0.00 0.00 0.00 44 996.1
20260504180020 78 238 5.2 16.5 0.00 0.00 0.00 41 1008.0
20260504175436 78 143 6.1 14.8 0.00 0.00 0.00 41 996.1
20260504174905 78 290 7.0 15.6 0.00 0.00 0.00 43 996.1
20260504174508 78 333 7.8 15.6 0.00 0.00 0.00 41 1008.1
20260504174405 78 279 6.1 15.6 0.00 0.00 0.00 42 996.2
20260504174228 78 248 5.2 13.9 0.00 0.00 0.00 41 996.2
20260504173336 79 284 5.2 13.0 0.00 0.00 0.00 44 996.3
20260504173141 78 253 5.2 13.0 0.00 0.00 0.00 42 1008.3
20260504172852 78 132 5.2 13.0 0.00 0.00 0.00 43 996.3
20260504172324 0 0.0 0.0 0.00 0.00 0.00
20260504172006 0 0.0 15.6 0.00 0.00 0.00
20260504171849 0 0.0 0.0 0.00 0.00 0.00
20260504171508 78 188 4.3 20.0 0.00 0.00 0.00 43 1008.4
20260504170825 78 236 5.2 15.6 0.00 0.00 0.00 43 996.6
20260504170310 77 228 6.1 15.6 0.00 0.00 0.00 45 996.6
20260504170106 77 221 4.3 10.4 0.00 0.00 0.00 44 1008.7
20260504160200 75 277 4.3 9.6 0.00 0.00 0.00 48 1009.3
20260504160122 76 121 3.5 9.6 0.00 0.00 0.00 48 997.3
20260504151019 72 141 4.3 3.5 0.00 0.00 0.00 55 997.6
20260504141102 0 0.0 0.0 0.00 0.00 0.00
20260504140547 0 0.0 5.2 0.00 0.00 0.00
20260504130651 63 281 2.6 8.7 0.00 0.00 0.00 75 998.3
20260504130436 63 277 1.7 5.2 0.00 0.00 0.00 74 998.4
20260504120202 60 162 0.9 3.5 0.00 0.00 0.00 79 998.1
20260504110558 60 256 0.9 5.2 0.00 0.00 0.00 78 997.5
20260504100451 62 271 1.7 7.8 0.00 0.00 0.00 75 997.6
20260504081641 0 0.0 0.0 0.00 0.00 0.00
20260504081521 63 274 0.9 4.3 0.00 0.00 0.00 70 1009.8
20260504081141 0 0.0 0.0 0.00 0.00 0.00
20260504080616 0 0.0 0.0 0.00 0.00 0.00
20260504080509 0 0.0 0.0 0.00 0.00 0.00
20260504080104 63 269 1.7 6.1 0.00 0.00 0.00 69 1009.8
20260504060145 64 250 1.7 5.2 0.00 0.00 0.00 66 1011.3
20260504060106 65 167 1.7 7.0 0.00 0.00 0.00 65 999.2
20260504050724 65 296 1.7 6.1 0.00 0.00 0.00 65 999.5
20260504050526 65 266 0.9 6.1 0.00 0.00 0.00 65 999.5
20260504045958 0 0.0 0.0 0.00 0.00 0.00
20260504045202 0 0.0 3.5 0.00 0.00 0.00
20260504044717 65 255 1.7 6.1 0.00 0.00 0.00 65 999.7
20260504044512 64 194 0.0 6.1 0.00 0.00 0.00 65 1012.0
20260504044211 65 211 1.7 6.1 0.00 0.00 0.00 65 999.7
20260504043624 64 338 1.7 3.5 0.00 0.00 0.00 66 999.8
20260504043158 64 294 0.9 3.5 0.00 0.00 0.00 65 1012.0
20260504043115 64 309 1.7 3.5 0.00 0.00 0.00 66 999.9
20260504042916 64 146 1.7 7.0 0.00 0.00 0.00 65 999.8
20260504042512 64 281 1.7 7.0 0.00 0.00 0.00 66 999.8
20260504041907 64 312 1.7 6.1 0.00 0.00 0.00 66 999.8
20260504041544 64 297 1.7 6.1 0.00 0.00 0.00 66 1012.0
20260504041059 64 261 1.7 3.5 0.00 0.00 0.00 66 999.8
20260504040627 64 129 0.9 5.2 0.00 0.00 0.00 66 999.8
20260504040020 63 186 0.0 5.2 0.00 0.00 0.00 66 1012.1
20260504035534 0 0.0 0.0 0.00 0.00 0.00
20260504035313 0 0.0 0.0 0.00 0.00 0.00
20260504034540 0 0.0 0.0 0.00 0.00 0.00
20260504034259 0 0.0 0.0 0.00 0.00 0.00
20260504033503 0 0.0 0.9 0.00 0.00 0.00
20260504033036 64 201 0.9 1.7 0.00 0.00 0.00 65 1012.2
20260504032917 64 230 0.9 1.7 0.00 0.00 0.00 65
20260504032753 65 230 0.9 0.9 0.00 0.00 0.00 64 1000.0
20260504032031 65 241 0.9 1.7 0.00 0.00 0.00 64 1012.1
20260504031608 64 279 0.0 2.6 0.00 0.00 0.00 64 1012.3
20260504031523 65 279 0.9 1.7 0.00 0.00 0.00 64 1012.0
20260504031155 0 0.0 0.0 0.00 0.00 0.00
20260504031104 0 0.0 0.0 0.00 0.00 0.00
20260504030324 0 0.0 0.0 0.00 0.00 0.00
20260504030053 65 279 1.7 3.5 0.00 0.00 0.00 63 1012.4
20260504025439 0 0.0 0.0 0.00 0.00 0.00
20260504024856 0 0.0 0.0 0.00 0.00 0.00
20260504024517 65 270 1.7 6.1 0.00 0.00 0.00 63 1012.4
20260504024349 0 0.0 0.0 0.00 0.00 0.00
20260504023820 0 0.0 0.0 0.00 0.00 0.00
20260504023328 0 0.0 0.0 0.00 0.00 0.00
20260504023054 65 151 0.0 3.5 0.00 0.00 0.00 62 1012.3
20260504022808 0 0.0 0.0 0.00 0.00 0.00
20260504022251 0 0.0 0.0 0.00 0.00 0.00
20260504021748 0 0.0 0.0 0.00 0.00 0.00
20260504021644 0 0.0 0.0 0.00 0.00 0.00
20260504021533 65 298 0.9 3.5 0.00 0.00 0.00 61 1012.2
20260504020752 0 0.0 0.0 0.00 0.00 0.00
20260504020605 0 0.0 0.0 0.00 0.00 0.00
20260504020049 65 222 0.0 1.7 0.00 0.00 0.00 60 1012.1
20260504015707 0 0.0 0.0 0.00 0.00 0.00
20260504015158 0 0.0 0.0 0.00 0.00 0.00
20260504014710 0 0.0 0.0 0.00 0.00 0.00
20260504014609 66 145 0.0 3.5 0.00 0.00 0.00 59 1011.9
20260504014134 0 0.0 0.0 0.00 0.00 0.00
20260504013642 0 0.0 0.0 0.00 0.00 0.00
20260504013137 0 0.0 0.0 0.00 0.00 0.00
20260504013133 67 151 0.0 1.7 0.00 0.00 0.00 57 1011.9
20260504012633 0 0.0 0.0 0.00 0.00 0.00
20260504012514 0 0.0 0.0 0.00 0.00 0.00